Stations météo

réclame
Mon MeteoGroup
Florennes, Belgique (6456): Température de l'air & dewpoint: 12.11.2018 05:00:00 - 18.11.2018 05:00:00 (CET)Florennes, Belgique (6456): Vitesse du vent & gusts: 12.11.2018 05:00:00 - 18.11.2018 05:00:00 (CET)Florennes, Belgique (6456): Direction du vent: 12.11.2018 05:00:00 - 18.11.2018 05:00:00 (CET)Florennes, Belgique (6456): reduced air pressure: 12.11.2018 05:00:00 - 18.11.2018 05:00:00 (CET)Florennes, Belgique (6456): visibility: 12.11.2018 05:00:00 - 18.11.2018 05:00:00 (CET)
Date & Time tt [°C] td [°C] ff [km/h] ff [knt] fx [km/h] fx [knt] dd ppp [hPa] vv [km]
18.11.2018 05:00:00 0,0 -3,5 7 4 14 8 NE 1028,2 20
18.11.2018 04:00:00 1,2 -3,6 11 6 - - ENE 1027,7 20
18.11.2018 03:00:00 2,0 -3,4 7 4 14 8 E 1027,5 20
18.11.2018 02:00:00 3,1 -3,3 11 6 14 8 E 1027,7 20
18.11.2018 01:00:00 3,1 -3,3 11 6 - - E 1028,0 20
18.11.2018 00:00:00 3,9 -3,7 7 4 14 8 E 1027,9 20
17.11.2018 23:00:00 4,1 -4,2 4 2 7 4 N 1028,0 20
17.11.2018 22:00:00 4,0 -3,9 4 2 - - N 1027,9 20
17.11.2018 21:00:00 3,7 -2,5 7 4 14 8 E 1027,5 20
17.11.2018 20:00:00 4,3 -1,1 7 4 7 4 E 1027,5 20
17.11.2018 19:00:00 4,5 -0,4 4 2 - - N 1027,5 20
17.11.2018 18:00:00 4,8 0,3 7 4 22 12 ENE 1027,5 20
17.11.2018 17:00:00 6,1 0,0 14 8 25 14 NE 1026,7 20
17.11.2018 16:00:00 9,0 -1,2 18 10 - - ENE 1026,2 20
17.11.2018 15:00:00 10,0 -2,8 18 10 36 19 ENE 1026,2 20
17.11.2018 14:00:00 9,6 -1,9 25 14 36 19 E 1026,9 20
17.11.2018 13:00:00 8,8 -0,9 22 12 - - E 1027,0 20
17.11.2018 12:00:00 7,1 -0,4 18 10 29 16 E 1027,5 20
17.11.2018 11:00:00 5,4 -0,4 11 6 18 10 E 1027,7 20
17.11.2018 10:00:00 2,9 -0,6 11 6 - - E 1028,0 20
17.11.2018 09:00:00 2,2 -0,9 4 2 18 10 N 1027,9 20
17.11.2018 08:00:00 1,0 -1,2 11 6 14 8 ENE 1028,2 17
17.11.2018 07:00:00 1,1 -1,1 4 2 - - N 1028,0 14
17.11.2018 06:00:00 1,2 -1,0 4 2 11 6 N 1027,9 15
17.11.2018 05:00:00 2,0 -0,6 7 4 11 6 E 1028,0 15
17.11.2018 04:00:00 1,3 -0,5 7 4 - - ENE 1028,2 14
17.11.2018 03:00:00 1,2 -0,8 7 4 11 6 E 1028,2 16
17.11.2018 02:00:00 1,2 -0,9 11 6 14 8 ENE 1028,2 13
17.11.2018 01:00:00 3,0 -0,7 11 6 - - E 1027,7 20
17.11.2018 00:00:00 2,0 -0,9 14 8 14 8 E 1028,0 20
16.11.2018 23:00:00 2,6 -0,8 7 4 11 6 E 1028,2 20
16.11.2018 22:00:00 4,3 0,0 4 2 - - N 1027,7 20
16.11.2018 21:00:00 4,4 1,3 7 4 11 6 E 1027,5 16
16.11.2018 20:00:00 5,4 2,3 7 4 11 6 E 1027,2 19
16.11.2018 19:00:00 6,5 3,1 7 4 - - E 1027,0 20
16.11.2018 18:00:00 5,9 3,5 4 2 7 4 N 1027,0 20
16.11.2018 17:00:00 7,0 4,1 4 2 7 4 N 1026,7 20
16.11.2018 16:00:00 8,0 4,8 4 2 - - N 1026,7 20
16.11.2018 15:00:00 8,3 5,6 7 4 11 6 E 1026,7 15
16.11.2018 14:00:00 5,5 5,5 8 4 14 8 E 1027,2 2,0
16.11.2018 13:00:00 4,7 4,6 9 5 - - ESE 1027,7 0,4
16.11.2018 12:00:00 4,6 4,6 7 4 14 8 SSE 1027,7 0,2
16.11.2018 11:00:00 4,5 4,5 11 6 18 10 ESE 1027,9 0,1
16.11.2018 10:00:00 4,3 4,3 11 6 - - SE 1027,7 0,1
16.11.2018 09:00:00 4,5 4,5 11 6 14 8 ESE 1027,7 0,1
16.11.2018 08:00:00 4,3 4,3 11 6 18 10 SSE 1027,0 0,2
16.11.2018 07:00:00 4,3 4,2 11 6 - - SSE 1026,7 0,1
16.11.2018 06:00:00 4,4 4,2 11 6 18 10 SSE 1026,5 0,1
16.11.2018 05:00:00 4,5 4,5 11 6 18 10 SSE 1026,2 0,2
16.11.2018 04:00:00 4,6 4,4 11 6 - - SSE 1026,0 0,2
16.11.2018 03:00:00 4,6 4,6 14 8 22 12 SE 1025,9 0,3
16.11.2018 02:00:00 4,6 4,6 11 6 22 12 SSE 1025,9 0,2
16.11.2018 01:00:00 4,5 4,3 14 8 - - SSE 1025,7 0,4
16.11.2018 00:00:00 4,5 4,4 14 8 22 12 SSE 1025,7 1,2
15.11.2018 23:00:00 4,5 4,3 11 6 22 12 SE 1026,0 1,2
15.11.2018 22:00:00 4,9 4,7 14 8 - - SE 1025,5 0,7
15.11.2018 21:00:00 5,1 4,7 13 7 18 10 SE 1025,2 3,7
15.11.2018 20:00:00 5,6 5,2 11 6 18 10 SE 1025,0 2,5
15.11.2018 19:00:00 6,0 4,7 11 6 - - SE 1024,7 17
15.11.2018 18:00:00 8,0 5,8 7 4 14 8 SE 1024,2 20
15.11.2018 17:00:00 9,6 5,8 11 6 14 8 ESE 1024,0 20
15.11.2018 16:00:00 12,0 6,8 11 6 - - SE 1023,6 20
15.11.2018 15:00:00 12,8 6,4 11 6 14 8 SSE 1023,7 20
15.11.2018 14:00:00 12,5 5,8 11 6 14 8 SE 1023,7 20
15.11.2018 13:00:00 11,4 5,5 11 6 - - SE 1024,2 20
15.11.2018 12:00:00 10,2 5,1 11 6 14 8 SE 1024,5 20
15.11.2018 11:00:00 8,5 4,7 11 6 14 8 SE 1025,2 20
15.11.2018 10:00:00 6,4 3,7 7 4 - - ESE 1025,7 20
15.11.2018 09:00:00 5,3 2,9 4 2 11 6 N 1025,7 20
15.11.2018 08:00:00 4,4 2,5 7 4 11 6 E 1025,7 20
15.11.2018 07:00:00 4,8 2,7 7 4 - - SE 1025,4 20
15.11.2018 06:00:00 4,8 2,8 11 6 14 8 ESE 1025,2 20
15.11.2018 05:00:00 5,3 3,2 7 4 11 6 ESE 1025,2 20
15.11.2018 04:00:00 4,9 3,2 7 4 - - ESE 1025,2 20
15.11.2018 03:00:00 5,0 3,4 7 4 14 8 ESE 1025,4 18
15.11.2018 02:00:00 5,5 3,7 7 4 14 8 ESE 1025,5 19
15.11.2018 01:00:00 5,8 3,7 7 4 - - ESE 1025,7 20
15.11.2018 00:00:00 6,0 3,6 7 4 11 6 E 1025,7 20
14.11.2018 23:00:00 6,3 3,6 7 4 18 10 ESE 1025,7 20
14.11.2018 22:00:00 6,6 4,2 11 6 - - SE 1025,7 20
14.11.2018 21:00:00 7,1 4,8 7 4 11 6 ESE 1025,7 20
14.11.2018 20:00:00 7,1 4,9 7 4 14 8 ESE 1026,0 20
14.11.2018 19:00:00 7,5 4,1 4 2 - - N 1026,2 20
14.11.2018 18:00:00 8,0 3,5 7 4 11 6 SE 1026,2 20
14.11.2018 17:00:00 9,5 4,5 7 4 14 8 SE 1026,2 20
14.11.2018 16:00:00 11,1 4,9 11 6 - - SE 1026,5 20
14.11.2018 15:00:00 11,1 5,1 11 6 22 12 SSE 1026,5 20
14.11.2018 14:00:00 10,9 5,7 14 8 25 14 S 1027,0 20
14.11.2018 13:00:00 9,8 6,0 14 8 - - SSE 1027,5 20
14.11.2018 12:00:00 8,5 6,9 14 8 22 12 SSE 1028,0 20
14.11.2018 11:00:00 6,1 6,1 16 9 18 10 SSE 1028,9 7
14.11.2018 10:00:00 4,5 4,4 7 4 - - SSE 1029,4 0,3
14.11.2018 09:00:00 4,1 4,1 4 2 11 6 N 1029,4 0,3
14.11.2018 08:00:00 4,9 4,6 7 4 14 8 SSE 1028,7 0,7
14.11.2018 07:00:00 4,5 4,4 11 6 - - SSE 1029,0 0,5
14.11.2018 06:00:00 5,1 4,7 8 4 11 6 SSE 1029,2 1,5
14.11.2018 05:00:00 5,4 5,1 11 6 14 8 S 1029,5 2,2
14.11.2018 04:00:00 5,6 5,1 4 2 - - N 1029,9 4,2
14.11.2018 03:00:00 6,4 5,6 4 2 11 6 N 1030,2 13
14.11.2018 02:00:00 6,8 5,8 4 2 7 4 N 1030,4 19
14.11.2018 01:00:00 6,6 5,7 4 2 - - N 1030,5 18
14.11.2018 00:00:00 7,4 6,1 7 4 18 10 S 1030,5 20
13.11.2018 23:00:00 7,0 5,7 7 4 14 8 SSW 1030,5 20
13.11.2018 22:00:00 7,3 5,9 7 4 - - S 1030,4 20
13.11.2018 21:00:00 7,5 5,9 14 8 22 12 S 1030,0 20
13.11.2018 20:00:00 8,0 6,2 14 8 18 10 SSW 1030,0 20
13.11.2018 19:00:00 8,0 6,0 11 6 - - SSW 1029,5 20
13.11.2018 18:00:00 8,6 6,1 11 6 18 10 SSW 1029,0 20
13.11.2018 17:00:00 10,0 6,2 11 6 22 12 SW 1028,5 20
13.11.2018 16:00:00 10,8 6,5 14 8 - - SW 1027,5 20
13.11.2018 15:00:00 11,0 5,9 22 12 32 18 SW 1026,9 20
13.11.2018 14:00:00 10,6 6,6 25 14 40 21 WSW 1026,7 20
13.11.2018 13:00:00 10,7 6,6 25 14 - - WSW 1026,2 20
13.11.2018 12:00:00 10,5 6,8 25 14 36 19 SW 1025,9 20
13.11.2018 11:00:00 9,8 7,0 25 14 32 18 WSW 1025,5 20
13.11.2018 10:00:00 9,6 7,3 22 12 - - SW 1024,5 20
13.11.2018 09:00:00 9,4 7,3 22 12 36 19 SSW 1023,8 20
13.11.2018 08:00:00 9,1 7,4 18 10 32 18 SW 1023,2 20
13.11.2018 07:00:00 9,1 7,7 18 10 - - SW 1022,3 12
13.11.2018 06:00:00 9,0 7,7 18 10 29 16 SW 1021,7 12
13.11.2018 05:00:00 8,6 7,6 18 10 25 14 SSW 1021,1 13
13.11.2018 04:00:00 8,3 7,2 14 8 - - S 1020,7 11
13.11.2018 03:00:00 8,3 7,4 14 8 22 12 S 1020,3 9
13.11.2018 02:00:00 8,1 7,3 14 8 25 14 S 1020,0 9
13.11.2018 01:00:00 8,1 7,3 14 8 - - S 1020,0 13
13.11.2018 00:00:00 8,1 7,3 11 6 18 10 S 1019,8 12
12.11.2018 23:00:00 8,0 7,5 7 4 18 10 S 1019,7 11
12.11.2018 22:00:00 8,1 7,4 4 2 - - N 1019,2 15
12.11.2018 21:00:00 8,1 7,4 7 4 14 8 SSW 1019,0 19
12.11.2018 20:00:00 8,1 7,4 4 2 18 10 N 1018,7 20
12.11.2018 19:00:00 8,3 7,4 11 6 - - SSW 1018,3 20
12.11.2018 18:00:00 8,3 7,6 7 4 14 8 WSW 1017,2 20
12.11.2018 17:00:00 8,6 7,5 11 6 22 12 WSW 1016,3 20
12.11.2018 16:00:00 9,5 8,5 18 10 - - WSW 1016,0 20
12.11.2018 15:00:00 9,8 8,9 14 8 18 10 SW 1015,2 20
12.11.2018 14:00:00 9,8 8,7 7 4 18 10 S 1013,8 12
12.11.2018 13:00:00 9,3 8,8 14 8 - - W 1014,7 6
12.11.2018 12:00:00 9,5 9,0 11 6 18 10 W 1013,6 4,0
12.11.2018 11:00:00 9,6 9,1 4 2 4 2 N 1012,8 15
12.11.2018 10:00:00 9,3 9,1 4 2 - - N 1012,5 15
12.11.2018 09:00:00 9,1 9,1 7 4 32 18 WNW 1012,0 8
12.11.2018 08:00:00 9,3 9,2 4 2 4 2 N 1011,6 5
12.11.2018 07:00:00 9,3 9,1 4 2 - - N 1011,5 9
12.11.2018 06:00:00 9,5 9,0 5 3 18 10 SSE 1011,7 7
12.11.2018 05:00:00 9,6 9,0 11 6 22 12 SSE 1011,8 20

tt = Température de l'air
td = dewpoint
ff = Vitesse du vent
fx = gusts
dd = Direction du vent
ppp = reduced air pressure
vv = visibility

stations d'obs. à proximité